Tracking 22836 objects as of 18-Apr-2021
HD Live streaming from Space Station
objects crossing your sky now

COSMOS 1806

Track COSMOS 1806 now!
COSMOS 1806 is classified as:


NORAD ID: 17213
Int'l Code: 1986-098A
Perigee: 6,612.6 km
Apogee: 33,724.1 km
Inclination: 68.7 °
Period: 717.1 minutes
Semi major axis: 26539 km
RCS: 14.9345 m2 (large)
Launch date: December 12, 1986
Source: Commonwealth of Independent States (former USSR) (CIS)
Launch site: PLESETSK MISSILE AND SPACE COMPLEX (PKMTR)
aabbcc
Your satellite tracking list
Your tracking list is empty




NASA's NSSDC Master Catalog

Two Line Element Set (TLE):
1 17213U 86098A   21106.31030111  .00000362  00000-0  00000-0 0  9996
2 17213  68.7369 222.0041 5107789 126.5156 294.1444  2.00801993251445
Source of the keplerian elements: AFSPC